Date,TemperatureHighF,TemperatureAvgF,TemperatureLowF,DewpointHighF,DewpointAvgF,DewpointLowF,HumidityHigh,HumidityAvg,HumidityLow,PressureMaxIn,PressureMinIn,WindSpeedMaxMPH,WindSpeedAvgMPH,GustSpeedMaxMPH,PrecipitationSumIn
2013-3-1,45.3,41.0,36.7,29.2,21.9,17.0,69,47,38,0.00,0.00,9,2,9,0.00
2013-3-2,47.8,39.2,31.8,21.5,16.3,10.5,55,39,31,0.00,0.00,15,2,15,0.00
2013-3-3,45.3,35.6,26.8,16.3,11.8,8.4,56,37,30,0.00,0.00,13,3,13,0.00
2013-3-4,56.7,38.3,26.1,16.3,11.4,6.8,50,34,20,0.00,0.00,11,2,11,0.00
2013-3-5,55.9,42.1,33.1,42.5,30.0,14.6,98,65,36,0.00,0.00,10,1,10,0.59
2013-3-6,50.4,40.7,36.3,38.5,25.1,18.0,96,57,33,0.00,0.00,22,5,22,0.16
2013-3-7,52.2,41.5,32.2,25.7,21.2,16.8,64,45,32,0.00,0.00,17,3,17,0.00
2013-3-8,57.6,43.0,29.8,28.6,20.6,15.9,76,45,24,0.00,0.00,13,2,13,0.00
2013-3-9,66.6,46.2,28.6,28.2,23.0,18.9,73,43,23,0.00,0.00,9,1,9,0.00
2013-3-10,70.9,49.9,31.3,32.5,26.1,22.6,75,44,22,0.00,40.00,6,1,9,0.00
2013-3-11,65.7,52.9,37.9,50.7,35.9,25.3,72,53,42,0.00,0.00,14,2,14,0.00
2013-3-12,68.2,58.1,46.2,58.4,42.3,21.6,98,62,26,0.00,0.00,10,2,15,0.71
2013-3-13,56.5,45.5,35.1,27.5,18.9,8.7,68,36,26,0.00,0.00,16,4,16,0.00
2013-3-14,56.5,41.1,30.7,19.4,13.1,7.9,49,33,20,0.00,0.00,14,3,14,0.00
2013-3-15,65.1,46.4,28.9,30.1,22.9,16.5,66,42,24,0.00,0.00,15,2,15,0.00
2013-3-16,80.6,58.4,39.4,48.0,37.3,29.3,80,50,22,0.00,0.00,17,2,17,0.00
2013-3-17,57.7,47.4,38.8,51.4,40.8,34.0,96,79,57,0.00,0.00,11,2,12,0.00
2013-3-18,39.7,38.0,36.5,38.2,36.9,35.1,98,96,87,0.00,0.00,8,2,8,0.24
2013-3-19,67.5,49.2,35.6,48.8,27.3,7.0,98,57,17,0.00,0.00,15,3,15,0.04
2013-3-20,62.6,46.8,31.1,20.6,14.6,4.5,55,29,16,0.00,0.00,13,2,13,0.04
2013-3-21,49.5,45.0,40.5,21.1,17.7,13.0,45,34,24,0.00,0.00,13,3,13,0.00
2013-3-23,58.1,49.9,39.7,27.8,25.0,22.1,62,40,27,0.00,0.00,6,1,6,0.00
2013-3-24,39.7,36.7,34.9,37.2,31.9,25.9,97,84,61,0.00,0.00,11,1,11,0.47
2013-3-25,47.1,39.2,33.8,39.5,25.6,15.1,98,64,30,0.00,0.00,14,3,14,0.04
2013-3-26,48.4,39.9,31.3,29.0,20.4,17.2,75,47,31,0.00,0.00,15,2,15,0.00
2013-3-27,52.0,39.8,28.8,24.7,18.5,13.7,75,45,27,0.00,0.00,17,2,17,0.47
2013-3-28,58.1,41.8,26.6,27.3,18.9,14.6,76,43,24,0.00,0.00,17,3,17,0.47
2013-3-29,66.6,45.9,26.6,27.3,20.9,17.0,72,41,18,0.00,0.00,9,1,10,0.00
2013-3-30,70.5,52.0,35.6,31.1,25.1,22.0,67,38,19,0.00,0.00,11,1,11,0.00
2013-3-31,65.8,53.5,44.4,54.8,44.4,25.8,97,73,43,0.00,0.00,12,1,12,0.47